ARABSAT-5C

Last updated on Mon Sep 15 2025 00:02:47 GMT+0000 (Coordinated Universal Time)

1 37810U 11049B 25257.23169597 .00000112 00000+0 00000+0 0 9999 2 37810 0.0576 19.4951 0004986 165.9983 271.3853 1.00273970 51279
UTC large
Height (km)
Speed (km/s)
/
Latitude / Longitude
Inclination (degrees)
Orbital Period (minutes)
Azimuth
Elevation
Range (km)
Doppler Factor

Next 0 passes for location: London (51.5072 / 0.1276)

Sorry there are no passes over London.